FW9229 Weather Reports


Display with metric or nautical units.
time (UTC)temp
F
wind
direction
speed
MPH
gust
MPH
rain 1hr
in
rain 24hr
in
rain mn
in
humidity
%
barometer
mb
20260502194531 77 344 0.0 7.0 0.00 0.00 0.00 35 1020.2
20260502194013 77 333 2.0 7.0 0.00 0.00 0.00 33 1020.1
20260502193512 77 7 2.0 4.0 0.00 0.00 0.00 36 1020.2
20260502193031 76 351 1.0 8.0 0.00 0.00 0.00 34 1020.3
20260502192511 76 331 2.0 8.0 0.00 0.00 0.00 32 1020.4
20260502192014 76 0 0.0 7.0 0.00 0.00 0.00 33 1020.7
20260502191536 77 0 1.0 9.0 0.00 0.00 0.00 35 1020.7
20260502191014 77 12 3.0 9.0 0.00 0.00 0.00 32 1020.7
20260502190514 76 341 1.0 4.0 0.00 0.00 0.00 34 1020.7
20260502190030 76 349 1.0 4.0 0.00 0.00 0.00 33 1020.6
20260502185517 75 77 1.0 6.0 0.00 0.00 0.00 31 1020.7
20260502185013 75 5 2.0 8.0 0.00 0.00 0.00 34 1021.0
20260502184533 76 350 2.0 8.0 0.00 0.00 0.00 31 1020.9
20260502184013 75 3 1.0 4.0 0.00 0.00 0.00 34 1020.9
20260502183514 75 0 0.0 6.0 0.00 0.00 0.00 36 1021.0
20260502183032 75 348 1.0 9.0 0.00 0.00 0.00 35 1021.0
20260502182514 75 331 1.0 9.0 0.00 0.00 0.00 35 1021.1
20260502182017 75 25 1.0 5.0 0.00 0.00 0.00 36 1021.1
20260502181531 74 333 2.0 7.0 0.00 0.00 0.00 33 1021.3
20260502181013 74 0 2.0 7.0 0.00 0.00 0.00 34 1021.3
20260502180517 74 0 0.0 3.0 0.00 0.00 0.00 34 1021.4
20260502170516 73 0 1.0 4.0 0.00 0.00 0.00 37 1021.8
20260502164014 72 0 1.0 4.0 0.00 0.00 0.00 40 1022.0
20260502163513 72 45 0.0 5.0 0.00 0.00 0.00 40 1021.9
20260502163036 71 0 0.0 8.0 0.00 0.00 0.00 40 1022.0
20260502162517 71 353 2.0 8.0 0.00 0.00 0.00 41 1022.0
20260502162014 71 337 1.0 8.0 0.00 0.00 0.00 41 1021.9
20260502161532 70 0 0.0 8.0 0.00 0.00 0.00 43 1021.9
20260502161011 70 0 1.0 5.0 0.00 0.00 0.00 41 1021.8
20260502160515 69 3 1.0 5.0 0.00 0.00 0.00 45 1021.9
20260502152014 63 0 1.0 4.0 0.00 0.00 0.00 55 1021.5
20260502151533 62 343 0.0 4.0 0.00 0.00 0.00 59 1021.6
20260502151020 61 356 0.0 4.0 0.00 0.00 0.00 59 1021.5
20260502150515 61 0 0.0 3.0 0.00 0.00 0.00 64 1021.6
20260502130514 53 0 0.0 0.0 0.00 0.00 0.00 92 1021.0
20260502123513 51 0 0.0 0.0 0.00 0.00 0.00 91 1020.4
20260502123031 51 0 0.0 0.0 0.00 0.00 0.00 90 1020.3
20260502122513 51 0 0.0 0.0 0.00 0.00 0.00 90 1020.3
20260502122012 51 0 0.0 0.0 0.00 0.00 0.00 90 1020.1
20260502121542 51 0 0.0 0.0 0.00 0.00 0.00 90 1019.9
20260502121013 51 0 0.0 0.0 0.00 0.00 0.00 90 1019.7
20260502120514 51 0 0.0 0.0 0.00 0.00 0.00 90 1019.7
20260502115517 51 0 0.0 0.0 0.00 0.00 0.00 90 1019.5
20260502115014 51 0 0.0 0.0 0.00 0.00 0.00 89 1019.5
20260502114533 51 0 0.0 0.0 0.00 0.00 0.00 89 1019.5
20260502114011 52 0 0.0 0.0 0.00 0.00 0.00 89 1019.4
20260502113516 52 0 0.0 0.0 0.00 0.00 0.00 89 1019.3
20260502113032 52 0 0.0 0.0 0.00 0.00 0.00 89 1019.3
20260502112514 52 0 0.0 0.0 0.00 0.00 0.00 89 1019.3
20260502112010 52 0 0.0 0.0 0.00 0.00 0.00 89 1019.1
20260502111530 52 0 0.0 0.0 0.00 0.00 0.00 89 1019.2
20260502111013 52 0 0.0 0.0 0.00 0.00 0.00 89 1018.9
20260502110513 52 0 0.0 0.0 0.00 0.00 0.00 89 1019.1
20260502110030 52 0 0.0 0.0 0.00 0.00 0.00 89 1019.0
20260502105516 52 0 0.0 0.0 0.00 0.00 0.00 89 1019.0
20260502105014 52 0 0.0 0.0 0.00 0.00 0.00 89 1018.9
20260502104542 51 0 0.0 0.0 0.00 0.00 0.00 89 1019.0
20260502104014 51 0 0.0 0.0 0.00 0.00 0.00 89 1018.9
20260502103514 51 0 0.0 0.0 0.00 0.00 0.00 89 1018.8
20260502103030 51 0 0.0 0.0 0.00 0.00 0.00 89 1018.6
20260502102513 51 0 0.0 0.0 0.00 0.00 0.00 89 1018.6
20260502102015 52 0 0.0 0.0 0.00 0.00 0.00 89 1018.6
20260502101530 52 0 0.0 0.0 0.00 0.00 0.00 89 1018.6
20260502101011 52 0 0.0 0.0 0.00 0.00 0.00 89 1018.7
20260502100513 52 0 0.0 0.0 0.00 0.00 0.00 89 1018.6
20260502091531 52 0 0.0 1.0 0.00 0.00 0.00 89 1018.7
20260502091018 52 0 0.0 0.0 0.00 0.00 0.00 89 1018.6
20260502090515 52 0 0.0 0.0 0.00 0.00 0.00 89 1018.7
20260502071012 54 0 0.0 0.0 0.00 0.00 0.00 87 1018.5
20260502070513 54 0 0.0 0.0 0.00 0.00 0.00 87 1018.5
20260502070030 54 0 0.0 0.0 0.00 0.00 0.00 87 1018.6
20260502065511 54 0 0.0 0.0 0.00 0.00 0.00 87 1018.7
20260502065013 54 0 0.0 0.0 0.00 0.00 0.00 87 1018.8
20260502064532 54 0 0.0 0.0 0.00 0.00 0.00 86 1018.8
20260502064012 54 0 0.0 0.0 0.00 0.00 0.00 86 1018.8
20260502063511 54 0 0.0 0.0 0.00 0.00 0.00 86 1018.9
20260502063031 55 0 0.0 0.0 0.00 0.00 0.00 86 1018.8
20260502062513 55 0 0.0 0.0 0.00 0.00 0.00 86 1018.8
20260502062014 55 0 0.0 0.0 0.00 0.00 0.00 86 1018.6
20260502061532 55 0 0.0 0.0 0.00 0.00 0.00 85 1018.6
20260502061013 55 0 0.0 0.0 0.00 0.00 0.00 85 1018.7
20260502060511 55 0 0.0 0.0 0.00 0.00 0.00 85 1018.6
20260502060030 55 0 0.0 0.0 0.00 0.00 0.00 85 1018.6
20260502055516 55 0 0.0 0.0 0.00 0.00 0.00 84 1018.6
20260502055015 56 0 0.0 0.0 0.00 0.00 0.00 84 1018.6
20260502054532 56 0 0.0 0.0 0.00 0.00 0.00 84 1018.5
20260502054011 56 0 0.0 0.0 0.00 0.00 0.00 84 1018.5
20260502053512 56 0 0.0 0.0 0.00 0.00 0.00 84 1018.6
20260502053030 56 0 0.0 0.0 0.00 0.00 0.00 83 1018.6
20260502052513 56 0 0.0 0.0 0.00 0.00 0.00 83 1018.7
20260502052013 56 0 0.0 0.0 0.00 0.00 0.00 82 1018.7
20260502051548 57 0 0.0 0.0 0.00 0.00 0.00 82 1018.8
20260502051014 57 0 0.0 0.0 0.00 0.00 0.00 81 1018.8
20260502050513 57 0 0.0 0.0 0.00 0.00 0.00 81 1018.9
20260502050031 57 0 0.0 0.0 0.00 0.00 0.00 80 1018.9
20260502045511 57 0 0.0 0.0 0.00 0.00 0.00 80 1018.8
20260502045014 57 0 0.0 0.0 0.00 0.00 0.00 80 1018.8
20260502044533 58 0 0.0 0.0 0.00 0.00 0.00 80 1018.7
20260502044013 58 0 0.0 0.0 0.00 0.00 0.00 79 1018.6
20260502043514 58 0 0.0 0.0 0.00 0.00 0.00 79 1018.7
20260502043032 58 0 0.0 0.0 0.00 0.00 0.00 79 1018.6
20260502042515 58 0 0.0 0.0 0.00 0.00 0.00 77 1018.6
20260502042015 58 0 0.0 0.0 0.00 0.00 0.00 77 1018.7
20260502041530 59 0 0.0 0.0 0.00 0.00 0.00 77 1018.6
20260502041013 59 0 0.0 0.0 0.00 0.00 0.00 76 1018.6
20260502040513 59 0 0.0 0.0 0.00 0.00 0.00 76 1018.5
20260502040032 59 0 0.0 0.0 0.00 0.00 0.00 76 1018.5
20260502035513 59 0 0.0 0.0 0.00 0.00 0.00 76 1018.6
20260502035013 59 0 0.0 0.0 0.00 0.00 0.00 75 1018.6
20260502034539 60 0 0.0 0.0 0.00 0.00 0.00 74 1018.6
20260502034014 60 0 0.0 0.0 0.00 0.00 0.00 74 1018.5
20260502033514 60 0 0.0 0.0 0.00 0.00 0.00 74 1018.6
20260502033045 60 0 0.0 0.0 0.00 0.00 0.00 73 1018.6
20260502032510 60 0 0.0 0.0 0.00 0.00 0.00 73 1018.6
20260502032014 61 0 0.0 0.0 0.00 0.00 0.00 72 1018.6
20260502031540 61 0 0.0 0.0 0.00 0.00 0.00 71 1018.4
20260502031013 61 0 0.0 0.0 0.00 0.00 0.00 71 1018.4
20260502030514 61 0 0.0 0.0 0.00 0.00 0.00 71 1018.3
20260502030032 61 0 0.0 0.0 0.00 0.00 0.00 71 1018.1
20260502025512 61 0 0.0 0.0 0.00 0.00 0.00 71 1018.0
20260502025014 61 0 0.0 0.0 0.00 0.00 0.00 71 1018.1
20260502024532 61 0 0.0 0.0 0.00 0.00 0.00 71 1018.1
20260502024014 61 0 0.0 0.0 0.00 0.00 0.00 71 1018.1
20260502023519 61 0 0.0 0.0 0.00 0.00 0.00 71 1018.1
20260502023033 61 0 0.0 1.0 0.00 0.00 0.00 71 1018.1
20260502022513 62 0 0.0 1.0 0.00 0.00 0.00 70 1018.1
20260502022013 62 0 0.0 1.0 0.00 0.00 0.00 70 1018.0
20260502021531 62 0 0.0 0.0 0.00 0.00 0.00 70 1017.7
20260502021013 62 0 0.0 0.0 0.00 0.00 0.00 70 1017.7
20260502020515 62 0 0.0 0.0 0.00 0.00 0.00 69 1017.8
20260502020030 62 0 0.0 0.0 0.00 0.00 0.00 68 1017.6
20260502015512 62 0 0.0 0.0 0.00 0.00 0.00 68 1017.5
20260502015014 62 0 0.0 0.0 0.00 0.00 0.00 68 1017.4
20260502014532 63 0 0.0 0.0 0.00 0.00 0.00 68 1017.3
20260502014018 63 0 0.0 2.0 0.00 0.00 0.00 68 1017.1
20260502013513 63 0 0.0 2.0 0.00 0.00 0.00 69 1016.9
20260502013032 63 0 0.0 1.0 0.00 0.00 0.00 66 1016.7
20260502012514 63 0 0.0 1.0 0.00 0.00 0.00 66 1016.7
20260502012014 63 0 0.0 1.0 0.00 0.00 0.00 65 1016.6
20260502011540 63 0 0.0 1.0 0.00 0.00 0.00 65 1016.5
20260502011014 63 0 0.0 1.0 0.00 0.00 0.00 65 1016.4
20260502010514 63 0 0.0 1.0 0.00 0.00 0.00 65 1016.3
20260502010032 63 0 0.0 2.0 0.00 0.00 0.00 65 1016.3
20260502005513 64 0 0.0 2.0 0.00 0.00 0.00 64 1016.2
20260502005013 64 0 0.0 2.0 0.00 0.00 0.00 63 1016.1
20260502004530 64 0 0.0 1.0 0.00 0.00 0.00 63 1016.0
20260502004014 64 0 0.0 1.0 0.00 0.00 0.00 63 1016.0
20260502003514 64 0 0.0 4.0 0.00 0.00 0.00 63 1016.0
20260502003033 64 0 0.0 4.0 0.00 0.00 0.00 62 1015.9
20260502002513 64 0 0.0 1.0 0.00 0.00 0.00 62 1015.9
20260502002016 64 0 0.0 2.0 0.00 0.00 0.00 62 1015.9
20260502001530 65 0 0.0 2.0 0.00 0.00 0.00 62 1015.8
20260502001014 65 0 0.0 2.0 0.00 0.00 0.00 61 1015.8
20260502000512 65 0 0.0 0.0 0.00 0.00 0.00 61 1015.7
20260502000031 65 0 0.0 0.0 0.00 0.00 0.00 61 1015.6
20260501235511 65 0 0.0 0.0 0.00 0.00 0.00 60 1015.4
20260501235014 65 0 0.0 0.0 0.00 0.00 0.00 60 1015.4
20260501234540 65 0 0.0 0.0 0.00 0.00 0.00 60 1015.4
20260501234014 65 0 0.0 0.0 0.00 0.00 0.00 59 1015.3
20260501233520 65 0 0.0 0.0 0.00 0.00 0.00 60 1015.3
20260501233031 65 0 0.0 0.0 0.00 0.00 0.00 60 1015.2
20260501232516 65 0 0.0 0.0 0.00 0.00 0.00 60 1015.2
20260501232015 66 0 0.0 3.0 0.00 0.00 0.00 59 1015.1
20260501231546 66 0 0.0 3.0 0.00 0.00 0.00 59 1014.9
20260501231014 66 0 0.0 3.0 0.00 0.00 0.00 58 1015.0
20260501230513 66 0 0.0 3.0 0.00 0.00 0.00 58 1014.9
20260501230030 66 0 0.0 4.0 0.00 0.00 0.00 58 1014.9
20260501225513 66 0 0.0 4.0 0.00 0.00 0.00 58 1014.8
20260501225012 66 0 0.0 4.0 0.00 0.00 0.00 58 1014.9
20260501224532 66 0 0.0 4.0 0.00 0.00 0.00 57 1014.9
20260501224014 66 0 0.0 4.0 0.00 0.00 0.00 57 1014.9
20260501223514 66 65 0.0 4.0 0.00 0.00 0.00 56 1014.9
20260501223029 66 92 1.0 4.0 0.00 0.00 0.00 57 1014.9
20260501222513 66 0 1.0 4.0 0.00 0.00 0.00 56 1014.9
20260501222015 66 100 0.0 4.0 0.00 0.00 0.00 56 1015.0
20260501221534 66 122 0.0 6.0 0.00 0.00 0.00 56 1014.9
20260501221017 66 126 1.0 6.0 0.00 0.00 0.00 57 1014.9
20260501220514 66 93 1.0 6.0 0.00 0.00 0.00 57 1014.9
20260501220031 66 93 1.0 6.0 0.00 0.00 0.00 57 1014.8
20260501215514 66 114 2.0 6.0 0.00 0.00 0.00 56 1014.8
20260501215013 66 0 1.0 6.0 0.00 0.00 0.00 56 1014.9
20260501214544 66 0 1.0 6.0 0.00 0.00 0.00 56 1014.9
20260501214011 66 133 2.0 7.0 0.00 0.00 0.00 56 1014.9
20260501213513 65 90 2.0 9.0 0.00 0.00 0.00 56 1015.0
20260501213034 66 95 3.0 9.0 0.00 0.00 0.00 55 1014.9
20260501212512 66 58 2.0 8.0 0.00 0.00 0.00 56 1015.0
20260501212012 66 94 1.0 8.0 0.00 0.00 0.00 56 1014.9
20260501211530 66 60 1.0 8.0 0.00 0.00 0.00 57 1014.8
20260501211013 66 44 3.0 12.0 0.00 0.00 0.00 56 1014.9
20260501210514 66 87 4.0 12.0 0.00 0.00 0.00 56 1015.0
20260501210033 66 44 2.0 5.0 0.00 0.00 0.00 56 1015.2
20260501205514 66 0 1.0 6.0 0.00 0.00 0.00 57 1015.4
20260501205012 66 60 3.0 6.0 0.00 0.00 0.00 55 1015.3
20260501204534 66 80 2.0 9.0 0.00 0.00 0.00 56 1015.4
20260501204015 66 71 3.0 10.0 0.00 0.00 0.00 56 1015.5
20260501203513 66 64 2.0 10.0 0.00 0.00 0.00 56 1015.3
20260501203032 66 86 3.0 9.0 0.00 0.00 0.00 56 1015.4
20260501202513 66 85 2.0 10.0 0.00 0.00 0.00 56 1015.7
20260501202017 66 79 3.0 10.0 0.00 0.00 0.00 55 1015.8
20260501201537 66 77 2.0 10.0 0.00 0.00 0.00 55 1015.9
20260501201012 66 0 4.0 10.0 0.00 0.00 0.00 55 1015.8
20260501200518 66 73 3.0 8.0 0.00 0.00 0.00 56 1015.7
20260501200032 66 98 2.0 8.0 0.00 0.00 0.00 57 1015.7
20260501195517 65 69 2.0 8.0 0.00 0.00 0.00 57 1015.6
20260501195012 65 57 2.0 11.0 0.00 0.00 0.00 58 1015.1